This is the latest recevied weather packets stored in our database for station/object F8KHU-13. If no packets are shown the sender has not sent any weather packets the latest 10 day(s).
| Time | Temp. | Humidity | Pressure | Rain* | Wind** | Luminosity | Snow |
|---|---|---|---|---|---|---|---|
| 1777574415 | 22.22° C | 26% | 1024.7 hPa | 0 mm | - | 0 W/m² | - |
| 1777574395 | 22.78° C | 26% | 1024.7 hPa | 0 mm | - | 0 W/m² | - |
| 1777573516 | 23.89° C | 26% | 1024.5 hPa | 0 mm | - | 0 W/m² | - |
| 1777573496 | 23.33° C | 26% | 1024.5 hPa | 0 mm | - | 0 W/m² | - |
| 1777572636 | 23.89° C | 26% | 1024.3 hPa | 0 mm | - | 0 W/m² | - |
| 1777572616 | 23.89° C | 26% | 1024.3 hPa | 0 mm | - | 0 W/m² | - |
| 1777572596 | 24.44° C | 25% | 1024.3 hPa | 0 mm | - | 0 W/m² | - |
| 1777571736 | 25° C | 25% | 1024.1 hPa | 0 mm | - | 0 W/m² | - |
| 1777571716 | 25° C | 25% | 1024.1 hPa | 0 mm | - | 0 W/m² | - |
| 1777571696 | 25° C | 25% | 1024.2 hPa | 0 mm | - | 0 W/m² | - |
| 1777570836 | 25° C | 25% | 1024.2 hPa | 0 mm | - | 0 W/m² | - |
| 1777570816 | 25° C | 25% | 1024.1 hPa | 0 mm | - | 0 W/m² | - |
| 1777570796 | 25° C | 25% | 1024.2 hPa | 0 mm | - | 0 W/m² | - |
| 1777569936 | 25° C | 25% | 1024.1 hPa | 0 mm | - | 0 W/m² | - |
| 1777569916 | 25.56° C | 25% | 1024.2 hPa | 0 mm | - | 0 W/m² | - |
| 1777569896 | 25° C | 25% | 1024.2 hPa | 0 mm | - | 0 W/m² | - |
| 1777569036 | 25° C | 25% | 1024.2 hPa | 0 mm | - | 0 W/m² | - |
| 1777569016 | 25° C | 25% | 1024.1 hPa | 0 mm | - | 0 W/m² | - |
| 1777568996 | 25° C | 25% | 1024.3 hPa | 0 mm | - | 0 W/m² | - |
| 1777568136 | 25.56° C | 25% | 1024.2 hPa | 0 mm | - | 0 W/m² | - |
| 1777568117 | 25.56° C | 25% | 1024.2 hPa | 0 mm | - | 0 W/m² | - |
| 1777568096 | 25.56° C | 25% | 1024.2 hPa | 0 mm | - | 0 W/m² | - |
| 1777567237 | 25.56° C | 25% | 1024.2 hPa | 0 mm | - | 0 W/m² | - |
| 1777567217 | 25.56° C | 25% | 1024.3 hPa | 0 mm | - | 0 W/m² | - |
| 1777567197 | 25.56° C | 25% | 1024.3 hPa | 0 mm | - | 0 W/m² | - |
* Rain latest hour (hover to see other rain measurements)
** Current wind speed in m/s (hover to see current wind gust speed)